Inquirer Daily News

Weather

Get conditions and forecasts for any City, State, ZIP code or Country:  
Northeast Philadelphia, PA
on Wednesday, January 2, 2013

Wednesday
Previous Day Next Day
Daily Summary
 ActualAverage (KTTN)Record (KTTN)
Temperature
Mean Temperature °F 31°F  
Max Temperature 33°F 39°F 68°F (1876)
Min Temperature 25°F 23°F 3°F (1918)
Degree Days
Heating Degree Days 36 34  
Month to date heating degree days 67  
Since 1 July heating degree days 1962  
Cooling Degree Days 0 0  
Month to date cooling degree days 0  
Year to date cooling degree days 0  
Moisture
Dew Point 13°F   
Average Humidity 54    
Maximum Humidity 61    
Minimum Humidity 45    
Precipitation
Precipitation 0.00 in 0.11 in 1.98 in (1892)
Month to date precipitation 0.22  
Year to date precipitation 0.22  
Snow
Snow 0.00 in in in ()
Snow Depth in   
Wind
Wind Speed 8 mph   
Max Wind Speed 14 mph   
Max Gust Speed 18 mph   
Visibility 10 miles   
Events     

Key: T is trace of precipitation, MM is missing value
Source: NWS Daily Summary
Time(EST)TemperatureDew PointHumidity Pressure Visibility Wind DirectionWind SpeedGust SpeedPrecipitationEvents Conditions
12:54 AM 28.9°F 12.9°F 51% 30.03 in 10.0 miles North 9.2 mph - N/A   Clear
1:54 AM 27.0°F 12.9°F 56% 30.05 in 10.0 miles North 5.8 mph - N/A   Clear
2:54 AM 27.0°F 14.0°F 58% 30.05 in 10.0 miles North 8.1 mph - N/A   Clear
3:54 AM 27.0°F 12.9°F 56% 30.04 in 10.0 miles North 10.4 mph - N/A   Clear
4:54 AM 26.1°F 12.9°F 58% 30.06 in 10.0 miles North 8.1 mph - N/A   Clear
5:54 AM 25.0°F 12.9°F 60% 30.06 in 10.0 miles North 5.8 mph - N/A   Clear
6:54 AM 25.0°F 12.9°F 60% 30.07 in 10.0 miles North 3.5 mph - N/A   Clear
7:54 AM 25.0°F 12.9°F 60% 30.09 in 10.0 miles NNW 3.5 mph - N/A   Clear
8:54 AM 27.0°F 12.9°F 56% 30.12 in 10.0 miles NNW 6.9 mph - N/A   Clear
9:54 AM 28.9°F 14.0°F 54% 30.13 in 10.0 miles West 5.8 mph - N/A   Clear
10:54 AM 30.9°F 14.0°F 50% 30.12 in 10.0 miles WNW 11.5 mph 17.3 mph N/A   Partly Cloudy
11:54 AM 32.0°F 14.0°F 48% 30.09 in 10.0 miles WNW 11.5 mph 17.3 mph N/A   Clear
12:54 PM 33.1°F 14.0°F 46% 30.08 in 10.0 miles NW 13.8 mph 18.4 mph N/A   Partly Cloudy
1:54 PM 33.1°F 14.0°F 46% 30.09 in 10.0 miles NW 13.8 mph - N/A   Clear
2:54 PM 33.1°F 14.0°F 46% 30.10 in 10.0 miles WNW 8.1 mph - N/A   Clear
3:54 PM 32.0°F 12.9°F 45% 30.12 in 10.0 miles WNW 11.5 mph - N/A   Clear
4:54 PM 30.0°F 12.9°F 49% 30.14 in 10.0 miles NW 6.9 mph - N/A   Clear
5:54 PM 30.0°F 12.9°F 49% 30.17 in 10.0 miles NW 8.1 mph - N/A   Clear
6:54 PM 28.9°F 12.9°F 51% 30.18 in 10.0 miles WNW 4.6 mph - N/A   Clear
7:54 PM 28.0°F 12.9°F 53% 30.19 in 10.0 miles West 5.8 mph - N/A   Clear
8:54 PM 27.0°F 14.0°F 58% 30.19 in 10.0 miles West 4.6 mph - N/A   Clear
9:54 PM 27.0°F 15.1°F 61% 30.20 in 10.0 miles WNW 6.9 mph - N/A   Clear
10:54 PM 27.0°F 14.0°F 58% 30.22 in 10.0 miles WNW 9.2 mph - N/A   Clear
11:54 PM 27.0°F 14.0°F 58% 30.23 in 10.0 miles WNW 8.1 mph - N/A   Clear
Astronomy
Sunrise:07:22 AM (EST) Moon Rise:10:16 PM (EST)1/2
Sunset:04:46 PM (EST) Moon Set:10:02 AM (EST)1/2
Moon Phase
Jan. 02 Jan. 04 Jan. 11 Jan. 18 Jan. 26

Copyright © 2014 The Weather Underground, Inc.